Hourly Weather Rudzica

Today, 10 April, Saturday

Time Temperature Precipitation Wind Pressure Humidity
00:00 +4°C° 0 mm 3 mps 734 mmHg 69%
01:00 +3°C° 0 mm 3 mps 734 mmHg 71%
02:00 +3°C° 0 mm 3 mps 734 mmHg 73%
03:00 +3°C° 0 mm 3 mps 733 mmHg 75%
04:00 +3°C° 0 mm 2 mps 733 mmHg 77%
05:00 +4°C° 0 mm 2 mps 733 mmHg 75%
06:00 +5°C° 0 mm 2 mps 734 mmHg 73%
07:00 +6°C° 0 mm 2 mps 734 mmHg 71%
08:00 +8°C° 0 mm 3 mps 734 mmHg 63%
09:00 +10°C° 0 mm 3 mps 734 mmHg 56%
10:00 +13°C° 0 mm 4 mps 734 mmHg 48%
11:00 +13°C° 0 mm 4 mps 734 mmHg 46%
12:00 +14°C° 0 mm 4 mps 734 mmHg 45%
13:00 +15°C° 0 mm 5 mps 734 mmHg 43%
14:00 +15°C° 0 mm 4 mps 734 mmHg 45%
15:00 +15°C° 0 mm 4 mps 734 mmHg 47%
16:00 +16°C° 0 mm 3 mps 734 mmHg 50%
17:00 +13°C° 0 mm 3 mps 734 mmHg 56%
18:00 +12°C° 0 mm 2 mps 734 mmHg 63%
19:00 +10°C° 0 mm 2 mps 735 mmHg 69%
20:00 +9°C° 0 mm 2 mps 735 mmHg 71%
21:00 +8°C° 0 mm 2 mps 735 mmHg 72%
22:00 +8°C° 0 mm 2 mps 735 mmHg 73%
23:00 +7°C° 0 mm 2 mps 735 mmHg 74%

Tomorrow, 11 April, Sunday

Time Temperature Precipitation Wind Pressure Humidity
00:00 +7°C° 0 mm 2 mps 735 mmHg 74%
01:00 +7°C° 0 mm 2 mps 735 mmHg 75%
02:00 +6°C° 0 mm 2 mps 735 mmHg 76%
03:00 +6°C° 0 mm 2 mps 735 mmHg 77%
04:00 +6°C° 0 mm 2 mps 734 mmHg 78%
05:00 +7°C° 0 mm 2 mps 734 mmHg 75%
06:00 +8°C° 0 mm 2 mps 735 mmHg 72%
07:00 +8°C° 0 mm 2 mps 735 mmHg 69%
08:00 +10°C° 0 mm 3 mps 735 mmHg 62%
09:00 +12°C° 0 mm 4 mps 735 mmHg 55%
10:00 +14°C° 0 mm 5 mps 735 mmHg 48%
11:00 +14°C° 0 mm 5 mps 734 mmHg 48%
12:00 +14°C° 0 mm 5 mps 734 mmHg 48%
13:00 +14°C° 0 mm 5 mps 734 mmHg 48%
14:00 +14°C° 0.1 mm 4 mps 734 mmHg 54%
15:00 +13°C° 0.1 mm 4 mps 734 mmHg 59%
16:00 +12°C° 0.1 mm 3 mps 734 mmHg 65%
17:00 +11°C° 0.2 mm 3 mps 734 mmHg 69%
18:00 +10°C° 0.2 mm 2 mps 734 mmHg 74%
19:00 +10°C° 0.2 mm 2 mps 734 mmHg 78%
20:00 +10°C° 0 mm 2 mps 733 mmHg 78%
21:00 +10°C° 0 mm 2 mps 733 mmHg 78%
22:00 +9°C° 0 mm 2 mps 733 mmHg 77%
23:00 +9°C° 0 mm 2 mps 733 mmHg 78%

Day after tomorrow, 12 April, Monday

Time Temperature Precipitation Wind Pressure Humidity
00:00 +9°C° 0 mm 2 mps 732 mmHg 78%
01:00 +9°C° 0 mm 2 mps 732 mmHg 79%
02:00 +10°C° 0 mm 1 mps 732 mmHg 79%
03:00 +10°C° 0 mm 1 mps 732 mmHg 80%
04:00 +10°C° 0 mm 1 mps 732 mmHg 80%
05:00 +10°C° 0 mm 1 mps 732 mmHg 79%
06:00 +11°C° 0 mm 1 mps 732 mmHg 77%
07:00 +11°C° 0 mm 1 mps 732 mmHg 75%
08:00 +12°C° 0 mm 2 mps 732 mmHg 71%
09:00 +12°C° 0 mm 3 mps 733 mmHg 66%
10:00 +13°C° 0 mm 3 mps 733 mmHg 62%
11:00 +13°C° 0 mm 3 mps 733 mmHg 60%
12:00 +14°C° 0 mm 3 mps 733 mmHg 59%
13:00 +14°C° 0 mm 3 mps 733 mmHg 57%
14:00 +14°C° 0 mm 3 mps 733 mmHg 58%
15:00 +15°C° 0 mm 2 mps 733 mmHg 59%
16:00 +15°C° 0 mm 2 mps 733 mmHg 60%
17:00 +14°C° 0 mm 2 mps 733 mmHg 65%
18:00 +13°C° 0 mm 2 mps 733 mmHg 70%
19:00 +12°C° 0 mm 2 mps 733 mmHg 76%
20:00 +10°C° 0.5 mm 2 mps 733 mmHg 81%
21:00 +10°C° 0.5 mm 2 mps 733 mmHg 86%
22:00 +9°C° 0.5 mm 2 mps 733 mmHg 90%
23:00 +8°C° 1.6 mm 3 mps 734 mmHg 92%

13 April, Tuesday

Time Temperature Precipitation Wind Pressure Humidity
00:00 +8°C° 1.6 mm 3 mps 734 mmHg 93%
01:00 +7°C° 1.6 mm 3 mps 734 mmHg 95%
02:00 +5°C° 0.7 mm 3 mps 734 mmHg 95%
03:00 +4°C° 0.7 mm 4 mps 735 mmHg 95%
04:00 +3°C° 0.7 mm 4 mps 735 mmHg 95%
05:00 +1°C° 0.4 mm 4 mps 736 mmHg 95%
06:00 +1°C° 0.4 mm 3 mps 736 mmHg 96%
07:00 +1°C° 0.4 mm 3 mps 737 mmHg 96%
08:00 +1°C° 0.4 mm 3 mps 737 mmHg 97%
09:00 +1°C° 0.4 mm 3 mps 737 mmHg 97%
10:00 0°C° 0.4 mm 3 mps 737 mmHg 97%
11:00 0°C° 1 mm 3 mps 737 mmHg 97%
12:00 0°C° 1 mm 3 mps 737 mmHg 97%
13:00 0°C° 1 mm 3 mps 737 mmHg 98%
14:00 +1°C° 1.4 mm 2 mps 737 mmHg 98%
15:00 +1°C° 1.4 mm 2 mps 737 mmHg 98%
16:00 +1°C° 1.4 mm 2 mps 737 mmHg 99%
17:00 +1°C° 1.3 mm 2 mps 737 mmHg 99%
18:00 +1°C° 1.3 mm 2 mps 737 mmHg 99%
19:00 +1°C° 1.3 mm 2 mps 737 mmHg 99%
20:00 +1°C° 1.4 mm 2 mps 737 mmHg 99%
21:00 +1°C° 1.4 mm 2 mps 737 mmHg 99%
22:00 0°C° 1.4 mm 3 mps 737 mmHg 99%
23:00 0°C° 1.2 mm 3 mps 737 mmHg 99%

14 April, Wednesday

Time Temperature Precipitation Wind Pressure Humidity
00:00 0°C° 1.2 mm 3 mps 737 mmHg 99%
01:00 0°C° 1.2 mm 3 mps 737 mmHg 99%
02:00 0°C° 0.6 mm 3 mps 737 mmHg 98%
03:00 0°C° 0.6 mm 3 mps 737 mmHg 98%
04:00 0°C° 0.6 mm 3 mps 737 mmHg 98%
05:00 0°C° 0.2 mm 3 mps 737 mmHg 97%
06:00 +1°C° 0.2 mm 2 mps 737 mmHg 97%
07:00 +1°C° 0.2 mm 2 mps 737 mmHg 96%
08:00 +1°C° 0.2 mm 3 mps 737 mmHg 93%
09:00 +1°C° 0.2 mm 3 mps 737 mmHg 90%
10:00 +2°C° 0.2 mm 3 mps 737 mmHg 87%
11:00 +1°C° 0.3 mm 4 mps 737 mmHg 85%
12:00 +3°C° 0.3 mm 4 mps 736 mmHg 83%
13:00 +3°C° 0.3 mm 4 mps 736 mmHg 81%
14:00 +3°C° 0.2 mm 4 mps 736 mmHg 80%
15:00 +4°C° 0.2 mm 4 mps 736 mmHg 78%
16:00 +4°C° 0.2 mm 4 mps 736 mmHg 77%
17:00 +3°C° 0.1 mm 3 mps 736 mmHg 78%
18:00 +2°C° 0.1 mm 3 mps 736 mmHg 78%
19:00 +3°C° 0.1 mm 2 mps 736 mmHg 79%
20:00 +2°C° 0 mm 2 mps 736 mmHg 80%
21:00 +2°C° 0 mm 2 mps 736 mmHg 81%
22:00 +1°C° 0 mm 2 mps 736 mmHg 83%
23:00 +1°C° 0 mm 2 mps 736 mmHg 83%

15 April, Thursday

Time Temperature Precipitation Wind Pressure Humidity
00:00 +1°C° 0 mm 2 mps 736 mmHg 84%
01:00 0°C° 0 mm 3 mps 736 mmHg 85%
02:00 0°C° 0 mm 3 mps 736 mmHg 86%
03:00 0°C° 0 mm 3 mps 736 mmHg 86%
04:00 0°C° 0 mm 3 mps 736 mmHg 87%
05:00 0°C° 0 mm 3 mps 736 mmHg 87%
06:00 -1°C° 0 mm 4 mps 736 mmHg 87%
07:00 -1°C° 0 mm 4 mps 736 mmHg 87%
08:00 0°C° 0.1 mm 4 mps 736 mmHg 82%
09:00 0°C° 0.1 mm 5 mps 736 mmHg 78%
10:00 +1°C° 0.1 mm 5 mps 736 mmHg 73%
11:00 +1°C° 0.1 mm 5 mps 736 mmHg 72%
12:00 +2°C° 0.1 mm 5 mps 736 mmHg 70%
13:00 +2°C° 0.1 mm 5 mps 736 mmHg 69%
14:00 +2°C° 0.3 mm 5 mps 736 mmHg 73%
15:00 +1°C° 0.3 mm 4 mps 736 mmHg 77%
16:00 +1°C° 0.3 mm 4 mps 736 mmHg 81%
17:00 +1°C° 0.8 mm 4 mps 736 mmHg 86%
18:00 +1°C° 0.8 mm 3 mps 736 mmHg 92%
19:00 +1°C° 0.8 mm 3 mps 737 mmHg 97%
20:00 0°C° 0.9 mm 3 mps 736 mmHg 97%
21:00 0°C° 0.9 mm 3 mps 736 mmHg 98%
22:00 0°C° 0.9 mm 3 mps 736 mmHg 98%
23:00 0°C° 0.8 mm 3 mps 736 mmHg 98%
Show more